STARLINK-1138 (45178 NORAD) Tracking and Keplerian Element Data

This shows tracking and keplerian element data for the satellite.

Feedback or suggestion? Click here.




ElementValue
Catalog45178
NameSTARLINK-1138
Epoch Orbit176
Epoch Day189.91668981
Epoch Year2020
RAAN342.6809
Inclination52.9993
Eccentricity0.0001107
Argument of Perigee108.4876
Mean Anonmoly331.8962
Mean Motion15.05573308
Decay Rate0.00032845
L11 45178U 20012A 20189.91668981 .00032845 00000-0 22633-2 0 9998
L22 45178 52.9993 342.6809 0001107 108.4876 331.8962 15.05573308 1762

Live tracking and technical data element details for STARLINK-1138 (NORAD 45178). STARLINK-1138 can be tracked NOW for your location showing map with azimuth and elevation plus other details from your city location.

Track the satellite on the map from your city or location and see movement details for azimuth, elevation, latitude, longitude, range, height, and movement on the map or in text.







IsCatalogInMostPopularTable: catalog: 45178, numindb: 38
Update: records affected: 1



GetName: 45178 STARLINK-1138

Hit Count: updated at: Thu, 09 Jul 2020 01:41:51 GMT